When you browse on this site, cookies collect data to enhance your experience and personalize the content and advertising you see.
Visit our Privacy Policy to learn more. By continuing to use the site, you agree to this use of cookies and data.
  • In Spain
  • List of Countries
  • For 7 days
  • Water Temperature
  • Weather Map
  • Weather Widgets
  • user-avatar
    Login

    Hourly Weather Mutare

    Today, 27 February, Thursday

    Time Temperature Precipitation Wind Pressure Humidity
    00:00 +15°C° 0 mm 0 mps 652 mmHg 97%
    01:00 +14°C° 0 mm 0 mps 652 mmHg 96%
    02:00 +14°C° 0 mm 0 mps 652 mmHg 96%
    03:00 +14°C° 0 mm 0 mps 652 mmHg 96%
    04:00 +13°C° 0 mm 0 mps 651 mmHg 96%
    05:00 +13°C° 0 mm 0 mps 651 mmHg 96%
    06:00 +15°C° 0 mm 0 mps 652 mmHg 90%
    07:00 +17°C° 0 mm 0 mps 653 mmHg 85%
    08:00 +19°C° 0 mm 0 mps 654 mmHg 80%
    09:00 +21°C° 0 mm 0 mps 654 mmHg 71%
    10:00 +25°C° 0 mm 1 mps 655 mmHg 63%
    11:00 +27°C° 0 mm 1 mps 655 mmHg 54%
    12:00 +27°C° 0 mm 1 mps 655 mmHg 53%
    13:00 +28°C° 0 mm 1 mps 654 mmHg 52%
    14:00 +28°C° 0 mm 1 mps 654 mmHg 50%
    15:00 +27°C° 0 mm 1 mps 653 mmHg 56%
    16:00 +26°C° 0 mm 2 mps 652 mmHg 61%
    17:00 +24°C° 0 mm 2 mps 652 mmHg 67%
    18:00 +21°C° 0 mm 2 mps 652 mmHg 73%
    19:00 +19°C° 0 mm 2 mps 651 mmHg 79%
    20:00 +18°C° 0 mm 1 mps 651 mmHg 85%
    21:00 +18°C° 0 mm 1 mps 652 mmHg 89%
    22:00 +18°C° 0 mm 1 mps 652 mmHg 92%
    23:00 +16°C° 0 mm 1 mps 652 mmHg 96%

    Tomorrow, 28 February, Friday

    Time Temperature Precipitation Wind Pressure Humidity
    00:00 +16°C° 0 mm 1 mps 652 mmHg 96%
    01:00 +16°C° 0 mm 1 mps 652 mmHg 96%
    02:00 +16°C° 0 mm 1 mps 651 mmHg 97%
    03:00 +16°C° 0 mm 1 mps 651 mmHg 96%
    04:00 +14°C° 0 mm 0 mps 651 mmHg 95%
    05:00 +14°C° 0 mm 0 mps 651 mmHg 94%
    06:00 +16°C° 0 mm 0 mps 652 mmHg 87%
    07:00 +18°C° 0 mm 0 mps 653 mmHg 79%
    08:00 +20°C° 0 mm 0 mps 654 mmHg 71%
    09:00 +24°C° 0 mm 1 mps 654 mmHg 64%
    10:00 +25°C° 0 mm 2 mps 654 mmHg 56%
    11:00 +26°C° 0 mm 2 mps 655 mmHg 49%
    12:00 +26°C° 0 mm 2 mps 654 mmHg 49%
    13:00 +27°C° 0 mm 3 mps 654 mmHg 49%
    14:00 +27°C° 0 mm 3 mps 653 mmHg 49%
    15:00 +26°C° 0 mm 3 mps 653 mmHg 56%
    16:00 +25°C° 0 mm 3 mps 652 mmHg 63%
    17:00 +24°C° 0 mm 3 mps 652 mmHg 70%
    18:00 +21°C° 0 mm 2 mps 652 mmHg 78%
    19:00 +20°C° 0 mm 2 mps 652 mmHg 86%
    20:00 +19°C° 0 mm 1 mps 653 mmHg 93%
    21:00 +18°C° 0 mm 1 mps 653 mmHg 94%
    22:00 +18°C° 0 mm 1 mps 653 mmHg 96%
    23:00 +18°C° 0 mm 1 mps 653 mmHg 97%

    Day after tomorrow, 29 February, Saturday

    Time Temperature Precipitation Wind Pressure Humidity
    00:00 +18°C° 0.1 mm 1 mps 653 mmHg 97%
    01:00 +18°C° 0.1 mm 1 mps 653 mmHg 97%
    02:00 +18°C° 0.1 mm 1 mps 653 mmHg 98%
    03:00 +18°C° 0.1 mm 1 mps 653 mmHg 97%
    04:00 +18°C° 0.1 mm 1 mps 653 mmHg 97%
    05:00 +18°C° 0.1 mm 1 mps 653 mmHg 96%
    06:00 +18°C° 0.1 mm 2 mps 653 mmHg 94%
    07:00 +18°C° 0.1 mm 2 mps 654 mmHg 92%
    08:00 +19°C° 0.1 mm 2 mps 654 mmHg 89%
    09:00 +20°C° 0.1 mm 2 mps 655 mmHg 81%
    10:00 +23°C° 0.1 mm 2 mps 655 mmHg 72%
    11:00 +25°C° 0.1 mm 2 mps 655 mmHg 63%
    12:00 +25°C° 0.1 mm 2 mps 655 mmHg 61%
    13:00 +26°C° 0.1 mm 2 mps 655 mmHg 58%
    14:00 +27°C° 0.1 mm 2 mps 654 mmHg 55%
    15:00 +25°C° 0.3 mm 2 mps 654 mmHg 64%
    16:00 +24°C° 0.3 mm 2 mps 653 mmHg 73%
    17:00 +21°C° 0.3 mm 2 mps 653 mmHg 82%
    18:00 +20°C° 0.4 mm 2 mps 653 mmHg 87%
    19:00 +20°C° 0.4 mm 1 mps 653 mmHg 92%
    20:00 +18°C° 0.4 mm 1 mps 654 mmHg 97%
    21:00 +18°C° 0.3 mm 1 mps 654 mmHg 97%
    22:00 +18°C° 0.3 mm 1 mps 654 mmHg 98%
    23:00 +16°C° 0.3 mm 0 mps 654 mmHg 98%

    1 March, Sunday

    Time Temperature Precipitation Wind Pressure Humidity
    00:00 +18°C° 0.6 mm 1 mps 654 mmHg 98%
    01:00 +18°C° 0.6 mm 1 mps 653 mmHg 98%
    02:00 +18°C° 0.6 mm 1 mps 653 mmHg 98%
    03:00 +18°C° 0.3 mm 1 mps 653 mmHg 98%
    04:00 +18°C° 0.3 mm 1 mps 653 mmHg 98%
    05:00 +18°C° 0.3 mm 1 mps 653 mmHg 98%
    06:00 +18°C° 0.1 mm 1 mps 653 mmHg 98%
    07:00 +18°C° 0.1 mm 1 mps 653 mmHg 97%
    08:00 +18°C° 0.1 mm 1 mps 654 mmHg 97%
    09:00 +19°C° 0.1 mm 1 mps 654 mmHg 93%
    10:00 +19°C° 0.1 mm 1 mps 654 mmHg 90%
    11:00 +20°C° 0.1 mm 1 mps 654 mmHg 86%
    12:00 +21°C° 0.2 mm 1 mps 654 mmHg 84%
    13:00 +21°C° 0.2 mm 1 mps 653 mmHg 81%
    14:00 +22°C° 0.2 mm 1 mps 653 mmHg 79%
    15:00 +22°C° 0.2 mm 1 mps 652 mmHg 81%
    16:00 +21°C° 0.2 mm 1 mps 652 mmHg 84%
    17:00 +21°C° 0.2 mm 1 mps 651 mmHg 86%
    18:00 +20°C° 0.1 mm 1 mps 651 mmHg 90%
    19:00 +19°C° 0.1 mm 1 mps 652 mmHg 93%
    20:00 +18°C° 0.1 mm 1 mps 652 mmHg 97%
    21:00 +16°C° 0 mm 1 mps 652 mmHg 97%
    22:00 +16°C° 0 mm 1 mps 652 mmHg 97%
    23:00 +16°C° 0 mm 1 mps 652 mmHg 97%

    2 March, Monday

    Time Temperature Precipitation Wind Pressure Humidity
    00:00 +16°C° 0 mm 1 mps 652 mmHg 97%
    01:00 +15°C° 0 mm 1 mps 652 mmHg 97%
    02:00 +15°C° 0 mm 1 mps 651 mmHg 98%
    03:00 +14°C° 0 mm 0 mps 651 mmHg 98%
    04:00 +14°C° 0 mm 0 mps 651 mmHg 98%
    05:00 +14°C° 0 mm 0 mps 651 mmHg 98%
    06:00 +15°C° 0 mm 0 mps 652 mmHg 94%
    07:00 +17°C° 0 mm 0 mps 653 mmHg 90%
    08:00 +18°C° 0 mm 0 mps 653 mmHg 85%
    09:00 +20°C° 0 mm 0 mps 654 mmHg 77%
    10:00 +22°C° 0 mm 0 mps 654 mmHg 69%
    11:00 +27°C° 0 mm 1 mps 654 mmHg 60%
    12:00 +27°C° 0.1 mm 1 mps 654 mmHg 59%
    13:00 +27°C° 0.1 mm 1 mps 653 mmHg 58%
    14:00 +27°C° 0.1 mm 1 mps 653 mmHg 57%
    15:00 +26°C° 0.1 mm 1 mps 652 mmHg 63%
    16:00 +25°C° 0.1 mm 2 mps 652 mmHg 69%
    17:00 +24°C° 0.1 mm 2 mps 651 mmHg 75%
    18:00 +21°C° 0 mm 2 mps 651 mmHg 82%
    19:00 +20°C° 0 mm 2 mps 651 mmHg 89%
    20:00 +19°C° 0 mm 1 mps 652 mmHg 96%
    21:00 +19°C° 0 mm 1 mps 652 mmHg 97%
    22:00 +19°C° 0 mm 1 mps 652 mmHg 97%
    23:00 +18°C° 0 mm 1 mps 652 mmHg 97%

    3 March, Tuesday

    Time Temperature Precipitation Wind Pressure Humidity
    00:00 +18°C° 0 mm 1 mps 652 mmHg 97%
    01:00 +18°C° 0 mm 1 mps 652 mmHg 98%
    02:00 +18°C° 0 mm 1 mps 651 mmHg 98%
    03:00 +18°C° 0 mm 1 mps 651 mmHg 97%
    04:00 +18°C° 0 mm 1 mps 651 mmHg 97%
    05:00 +16°C° 0 mm 0 mps 651 mmHg 97%
    06:00 +17°C° 0.1 mm 0 mps 652 mmHg 94%
    07:00 +18°C° 0.1 mm 0 mps 653 mmHg 92%
    08:00 +19°C° 0.1 mm 0 mps 653 mmHg 89%
    09:00 +21°C° 0.5 mm 1 mps 653 mmHg 88%
    10:00 +22°C° 0.5 mm 1 mps 653 mmHg 87%
    11:00 +21°C° 0.5 mm 2 mps 653 mmHg 85%
    12:00 +21°C° 0.2 mm 2 mps 653 mmHg 82%
    13:00 +23°C° 0.2 mm 1 mps 653 mmHg 78%
    14:00 +23°C° 0.2 mm 1 mps 652 mmHg 75%
    15:00 +23°C° 0 mm 1 mps 652 mmHg 75%
    16:00 +23°C° 0 mm 1 mps 652 mmHg 76%
    17:00 +22°C° 0 mm 1 mps 651 mmHg 76%
    18:00 +21°C° 0 mm 1 mps 652 mmHg 82%
    19:00 +19°C° 0 mm 1 mps 652 mmHg 88%
    20:00 +18°C° 0 mm 1 mps 652 mmHg 93%
    21:00 +18°C° 0 mm 1 mps 652 mmHg 93%
    22:00 +16°C° 0 mm 1 mps 652 mmHg 93%
    23:00 +16°C° 0 mm 1 mps 652 mmHg 92%
    Show more